G4YTK Weather Reports


time (UTC)temp
F
wind
direction
speed
knots
gust
knots
rain 1hr
in
rain 24hr
in
rain mn
in
humidity
%
barometer
mb
20260502163006 62 36 1.7 3.5 0.00 0.00 0.00 100 1013.3
20260502161506 62 44 0.9 2.6 0.00 0.00 0.00 100 1013.5
20260502151506 62 98 1.7 5.2 0.00 0.00 0.00 100 1014.1
20260502123005 63 360 1.7 7.8 0.00 0.00 0.00 100 1016.0
20260502121505 62 185 2.6 4.3 0.00 0.00 0.00 100 1016.3
20260502114505 61 225 2.6 6.1 0.00 0.00 0.00 100 1016.4
20260502113006 60 158 3.5 5.2 0.00 0.00 0.00 100 1016.7
20260502110010 60 276 3.5 7.8 0.00 0.00 0.00 100 1017.4
20260502104505 60 281 3.5 7.0 0.00 0.00 0.00 100 1017.5
20260502103006 59 292 4.3 8.7 0.00 0.00 0.00 100 1017.4
20260502101505 58 253 2.6 7.0 0.00 0.00 0.00 100 1017.5
20260502071505 49 290 2.6 7.0 0.00 0.00 0.00 100 1018.4
20260502070008 48 360 1.7 5.2 0.00 0.00 0.00 100 1018.5
20260502063005 48 360 1.7 4.3 0.00 0.00 0.00 100 1018.4
20260502060009 47 360 1.7 4.3 0.00 0.00 0.00 100 1018.2
20260502054505 47 360 0.9 3.5 0.00 0.00 0.00 100 1018.1
20260502053005 46 360 0.9 3.5 0.00 0.00 0.00 100 1018.1
20260502051506 46 360 1.7 3.5 0.00 0.00 0.00 100 1018.1
20260502050012 46 360 1.7 4.3 0.00 0.00 0.00 100 1018.3
20260502044505 44 360 0.9 2.6 0.00 0.00 0.00 100 1018.2
20260502041505 45 360 0.0 0.0 0.00 0.00 0.00 100 1018.3
20260502040008 45 360 0.0 0.0 0.00 0.00 0.00 100 1018.4
20260502034505 45 360 0.0 0.0 0.00 0.00 0.00 100 1018.4
20260502033005 46 360 0.0 0.0 0.00 0.00 0.00 100 1018.5
20260502031505 46 360 0.0 1.7 0.00 0.00 0.00 100 1018.6
20260502030008 47 360 0.9 2.6 0.00 0.00 0.00 100 1018.6
20260502024505 47 360 1.7 2.6 0.00 0.00 0.00 100 1018.6
20260502021505 48 360 1.7 5.2 0.00 0.00 0.00 100 1018.8
20260502014505 49 360 1.7 3.5 0.00 0.00 0.00 100 1019.0
20260502011505 50 360 2.6 5.2 0.00 0.00 0.00 100 1019.4
20260502010008 50 360 1.7 3.5 0.00 0.00 0.00 100 1019.4
20260502004505 50 360 1.7 4.3 0.00 0.00 0.00 100 1019.5
20260502003005 51 360 2.6 5.2 0.00 0.00 0.00 100 1019.6
20260502000007 51 360 2.6 5.2 0.00 0.00 0.00 100 1019.7
20260501233006 52 360 2.6 5.2 0.00 0.00 0.00 100 1019.8
20260501231506 52 360 2.6 5.2 0.00 0.00 0.00 100 1019.9
20260501230011 53 360 2.6 5.2 0.00 0.00 0.00 100 1019.9
20260501223006 54 360 3.5 7.8 0.00 0.00 0.00 100 1019.8
20260501221506 54 360 3.5 7.0 0.00 0.00 0.00 100 1019.7
20260501220010 54 360 2.6 5.2 0.00 0.00 0.00 100 1019.7
20260501213006 54 360 3.5 7.0 0.00 0.00 0.00 100 1019.8
20260501211506 54 360 3.5 7.8 0.00 0.00 0.00 100 1019.8
20260501210009 54 360 3.5 7.0 0.00 0.00 0.00 100 1019.8
20260501204506 54 360 2.6 7.8 0.00 0.00 0.00 100 1019.9
20260501203006 55 360 3.5 7.8 0.00 0.00 0.00 100 1019.8
20260501201506 54 360 2.6 4.3 0.00 0.00 0.00 100 1019.9
20260501200009 55 360 2.6 7.8 0.00 0.00 0.00 100 1019.9
20260501194506 55 360 3.5 7.8 0.00 0.00 0.00 100 1019.8
20260501193006 55 360 3.5 7.8 0.00 0.00 0.00 100 1019.9
20260501191506 55 360 2.6 7.8 0.00 0.00 0.00 100 1019.9
20260501190009 56 360 4.3 7.8 0.00 0.00 0.00 100 1019.8
20260501184506 56 360 5.2 9.6 0.00 0.00 0.00 100 1019.7
20260501183006 57 360 5.2 8.7 0.00 0.00 0.00 100 1019.6
20260501174506 60 360 7.0 10.4 0.00 0.00 0.00 100 1019.4
20260501173006 61 360 5.2 10.4 0.00 0.00 0.00 100 1019.2